Regional Weather Roundup
Issued by NWS

Home | Current Version | Previous Version | Text Only | Print | Product List | Glossary Off
Versions: 1 2 3 4 5 6 7 8 9 10 11 12 13 14 15 16 17 18 19 20 21 22 23 24 25 26 27 28 29 30 31 32 33 34 35 36 37 38 39 40 41 42 43 44 45 46 47 48 49 50

000
ASUS45 KABQ 221701
RWRNM
NEW MEXICO REGIONAL WEATHER ROUNDUP
NATIONAL WEATHER SERVICE ALBUQUERQUE NM
1100 AM MDT SAT JUL 22 2017

NOTE: "FAIR" MEANS FEW OR NO CLOUDS BELOW 12,000 FEET AGL WITH NO
       SIGNIFICANT WEATHER OR OBSTRUCTIONS TO VISION.

      THIS PRODUCT IS RELEASED AS TWO VERSIONS.  ONE VERSION NEAR
      THE TOP OF THE HOUR CONTAINING PRELIMINARY DATA FROM ALBUQUERQUE
      AND OTHER STATIONS.  A FINAL VERSION WITH ADDITIONAL DATA IS
      ISSUED ABOUT 10 MINUTES AFTER THE HOUR.

NMZ501-503-504-510>518-221800-
NORTHWEST PLATEAU/NORTHCENTRAL MOUNTAINS

CITY           SKY/WX    TMP DP  RH WIND       PRES   REMARKS
FARMINGTON     FAIR      78  57  48 VRB3      30.19S
LOS ALAMOS     FAIR      76  48  37 SE7       30.32F
SANTA FE       FAIR      79  54  41 VRB6      30.24F
TAOS           FAIR      75  48  38 CALM      30.32F
ANGEL FIRE     FAIR      71  51  48 E3        30.41F

$$
NMZ402-403-502-505>509-221800-
WESTCENTRAL MOUNTAINS/SOUTHWEST MOUNTAINS

CITY           SKY/WX    TMP DP  RH WIND       PRES   REMARKS
GALLUP         FAIR      77  53  43 VRB3      30.26S
GRANTS         FAIR      77  51  40 CALM      30.28S
SILVER CITY    FAIR      76  59  55 NW6       30.19F

$$
NMZ407-409-411-412-221800-
SOUTHERN DESERTS

CITY           SKY/WX    TMP DP  RH WIND       PRES   REMARKS
DEMING         FAIR      78  64  61 CALM      30.13S
LAS CRUCES     FAIR      78  64  61 CALM      30.15S
HOLLOMAN AFB   FAIR      84  62  47 S7        30.14S
ALAMOGORDO     FAIR      81  59  47 SW7       30.13F
T OR C         PTSUNNY   79  58  48 MISG      30.15F

$$
NMZ519>523-221800-
CENTRAL VALLEYS/CENTRAL HIGHLANDS

CITY           SKY/WX    TMP DP  RH WIND       PRES   REMARKS
ALBUQUERQUE    FAIR      79  58  48 VRB5      30.20S
DOUBLE EAGLE   MOSUNNY   81  55  41 VRB7      30.24S
MORIARTY ARPT  FAIR      82  53  36 SW5       30.25F
CLINES CORNERS FAIR      79  46  31 SE7       30.30F
BELEN          NOT AVBL
SOCORRO        FAIR      82  58  43 SE12      30.16S

$$
NMZ524>526-539-540-221800-
SOUTHCENTRAL MOUNTAINS

CITY           SKY/WX    TMP DP  RH WIND       PRES   REMARKS
RUIDOSO        FAIR      75  50  41 E3        30.31S

$$
NMZ527>531-221800-
NORTHEAST HIGHLANDS/NORTHEAST PLAINS

CITY           SKY/WX    TMP DP  RH WIND       PRES   REMARKS
LAS VEGAS      FAIR      78  48  34 N7        30.29F
RATON          FAIR      81  48  31 NE6       30.24F
CLAYTON        FAIR      86  53  32 NE7       30.15S

$$
NMZ532>537-221800-
EASTCENTRAL PLAINS

CITY           SKY/WX    TMP DP  RH WIND       PRES   REMARKS
SANTA ROSA     FAIR      86  52  30 N3        30.12S
TUCUMCARI      FAIR      89  55  31 VRB5      30.06F
CANNON AFB     FAIR      88  54  31 SE5       30.11F
CLOVIS AIRPORT FAIR      88  58  36 VRB5      30.11F

$$
NMZ028-029-538-221800-
SOUTHEAST PLAINS

CITY           SKY/WX    TMP DP  RH WIND       PRES   REMARKS
ROSWELL        FAIR      88  58  36 VRB5      30.07S
ARTESIA        FAIR      88  59  37 VRB3      30.06S
CARLSBAD       FAIR      87  62  43 VRB5      30.04S
HOBBS          PTSUNNY   86  59  39 SE6       30.09S


$$




USA.gov is the U.S. government's official web portal to all federal, state and local government web resources and services.